Weather History for Pine River, MN

Change the Weather History Date:

Thursday, October 10, 2013

  Actual Average Record
Temperature  
Mean Temperature 60 °F -  
Max Temperature 71 °F 55 °F 77 °F (2003)
Min Temperature 48 °F 35 °F 21 °F (2006)
Degree Days  
Heating Degree Days 6    
Growing Degree Days 10 (Base 50)    
Moisture  
Dew Point 51 °F    
Average Humidity 74    
Maximum Humidity 94    
Minimum Humidity 56    
Precipitation  
Precipitation 0.00 in - - ()
Sea Level Pressure  
Sea Level Pressure 29.94 in    
Wind  
Wind Speed 6 mph (SE)    
Max Wind Speed 18 mph    
Max Gust Speed 24 mph    
Visibility 10 miles    
Events      
Averages and records for this station are not official NWS values.
T = Trace of Precipitation, MM = Missing Value Source: NWS Daily Summary

Daily Weather History Graph

Daily Weather History Graph

Search for Another Location

Airport:

Trip Planner

Search our weather history database for the weather conditions in past years. The results will help you decide how hot, cold, wet, or windy it might be!

Date:

Astronomy

Oct. 10, 2013 Rise Set
Actual Time 7:28 AM CDT 6:39 PM CDT
Civil Twilight 6:58 AM CDT 7:09 PM CDT
Nautical Twilight 6:23 AM CDT 7:44 PM CDT
Astronomical Twilight 5:48 AM CDT 8:19 PM CDT
Moon 1:35 PM CDT (10/10) 11:04 PM CDT (10/10)
Length of Visible Light 12h 11m
Length of Day
11h 10m
Waxing Crescent, 36% of the Moon is Illuminated
Oct 10
Waxing Crescent
Oct 11
First Quarter
Oct 18
Full
Oct 26
Last Quarter
Nov 3
New

Hourly Weather History & Observations

Time (CDT) Temp. Dew Point Humidity Pressure Visibility Wind Dir Wind Speed Gust Speed Precip Events Conditions
12:12 AM 48.2 °F 46.4 °F 93% 30.03 in 10.0 mi Calm Calm - N/A   Clear
12:32 AM 50.0 °F 48.2 °F 94% 30.03 in 10.0 mi Calm Calm - N/A   Clear
12:53 AM 51.8 °F 50.0 °F 94% 30.03 in 10.0 mi Calm Calm - N/A   Clear
1:13 AM 51.8 °F 48.2 °F 88% 30.02 in 10.0 mi SE 3.5 mph - N/A   Clear
1:33 AM 51.8 °F 48.2 °F 88% 30.02 in 10.0 mi SE 4.6 mph - N/A   Clear
1:51 AM 51.8 °F 48.2 °F 88% 30.02 in 10.0 mi Calm Calm - N/A   Clear
2:12 AM 51.8 °F 48.2 °F 88% 30.02 in 10.0 mi Calm Calm - N/A   Clear
2:33 AM 51.8 °F 48.2 °F 88% 30.02 in 10.0 mi SSE 5.8 mph - N/A   Clear
2:53 AM 51.8 °F 48.2 °F 88% 30.02 in 10.0 mi SE 3.5 mph - N/A   Clear
3:13 AM 51.8 °F 48.2 °F 88% 30.01 in 10.0 mi SE 3.5 mph - N/A   Clear
3:33 AM 51.8 °F 48.2 °F 88% 30.01 in 10.0 mi SE 3.5 mph - N/A   Clear
3:53 AM 51.8 °F 48.2 °F 88% 30.01 in 10.0 mi SSE 3.5 mph - N/A   Clear
4:12 AM 51.8 °F 48.2 °F 88% 30.01 in 10.0 mi SE 4.6 mph - N/A   Clear
4:32 AM 51.8 °F 48.2 °F 88% 30.01 in 10.0 mi SE 3.5 mph - N/A   Clear
4:53 AM 51.8 °F 46.4 °F 82% 30.01 in 10.0 mi SSE 3.5 mph - N/A   Clear
5:13 AM 51.8 °F 46.4 °F 82% 30.00 in 10.0 mi Calm Calm - N/A   Clear
5:32 AM 51.8 °F 46.4 °F 82% 30.00 in 10.0 mi Calm Calm - N/A   Clear
5:53 AM 51.8 °F 46.4 °F 82% 30.00 in 10.0 mi SE 4.6 mph - N/A   Clear
6:13 AM 50.0 °F 46.4 °F 87% 29.99 in 10.0 mi SE 3.5 mph - N/A   Clear
6:32 AM 51.8 °F 46.4 °F 82% 29.99 in 10.0 mi SE 4.6 mph - N/A   Clear
6:52 AM 51.8 °F 46.4 °F 82% 29.99 in 10.0 mi SE 4.6 mph - N/A   Clear
7:13 AM 51.8 °F 46.4 °F 82% 29.98 in 10.0 mi SE 4.6 mph - N/A   Clear
7:32 AM 51.8 °F 46.4 °F 82% 29.99 in 10.0 mi SE 4.6 mph - N/A   Clear
7:52 AM 50.0 °F 46.4 °F 87% 29.98 in 10.0 mi SE 5.8 mph - N/A   Clear
8:12 AM 51.8 °F 46.4 °F 82% 29.98 in 10.0 mi ESE 5.8 mph - N/A   Clear
8:33 AM 53.6 °F 48.2 °F 82% 29.97 in 10.0 mi SE 6.9 mph - N/A   Clear
8:53 AM 53.6 °F 48.2 °F 82% 29.98 in 10.0 mi SE 6.9 mph - N/A   Clear
9:13 AM 55.4 °F 48.2 °F 77% 29.98 in 10.0 mi SE 5.8 mph - N/A   Clear
9:33 AM 55.4 °F 48.2 °F 77% 29.97 in 10.0 mi SE 8.1 mph - N/A   Clear
9:52 AM 57.2 °F 48.2 °F 72% 29.97 in 10.0 mi SSE 9.2 mph - N/A   Clear
10:13 AM 57.2 °F 50.0 °F 77% 29.97 in 10.0 mi SSE 11.5 mph - N/A   Clear
10:32 AM 59.0 °F 50.0 °F 72% 29.97 in 10.0 mi SSE 9.2 mph - N/A   Clear
10:53 AM 60.8 °F 50.0 °F 68% 29.97 in 10.0 mi SSE 12.7 mph - N/A   Clear
11:11 AM 60.8 °F 50.0 °F 68% 29.96 in 10.0 mi SSE 9.2 mph - N/A   Clear
11:32 AM 62.6 °F 51.8 °F 68% 29.95 in 10.0 mi SSE 9.2 mph - N/A   Clear
11:53 AM 62.6 °F 51.8 °F 68% 29.95 in 10.0 mi SE 10.4 mph - N/A   Clear
12:13 PM 62.6 °F 51.8 °F 68% 29.95 in 10.0 mi SSE 11.5 mph - N/A   Clear
12:33 PM 64.4 °F 51.8 °F 64% 29.94 in 10.0 mi SSE 9.2 mph - N/A   Clear
12:53 PM 66.2 °F 53.6 °F 64% 29.93 in 10.0 mi South 13.8 mph 17.3 mph N/A   Clear
1:12 PM 66.2 °F 53.6 °F 64% 29.93 in 10.0 mi SSE 10.4 mph 16.1 mph N/A   Clear
1:33 PM 66.2 °F 53.6 °F 64% 29.91 in 10.0 mi SE 11.5 mph - N/A   Clear
1:52 PM 68.0 °F 55.4 °F 64% 29.91 in 10.0 mi SE 12.7 mph 19.6 mph N/A   Clear
2:13 PM 69.8 °F 53.6 °F 56% 29.91 in 10.0 mi South 12.7 mph 19.6 mph N/A   Clear
2:32 PM 69.8 °F 55.4 °F 60% 29.91 in 10.0 mi SSE 12.7 mph 18.4 mph N/A   Clear
2:52 PM 71.6 °F 55.4 °F 57% 29.90 in 10.0 mi SSE 16.1 mph 23.0 mph N/A   Clear
3:13 PM 71.6 °F 55.4 °F 57% 29.89 in 10.0 mi SSE 15.0 mph 20.7 mph N/A   Clear
3:33 PM 71.6 °F 55.4 °F 57% 29.88 in 10.0 mi SE 18.4 mph 24.2 mph N/A   Clear
3:52 PM 71.6 °F 55.4 °F 57% 29.88 in 10.0 mi SSE 16.1 mph 20.7 mph N/A   Clear
4:13 PM 71.6 °F 55.4 °F 57% 29.88 in 10.0 mi SSE 18.4 mph 24.2 mph N/A   Clear
4:32 PM 69.8 °F 55.4 °F 60% 29.88 in 10.0 mi SSE 12.7 mph 20.7 mph N/A   Clear
4:53 PM 69.8 °F 55.4 °F 60% 29.88 in 10.0 mi SSE 13.8 mph 17.3 mph N/A   Clear
5:12 PM 69.8 °F 55.4 °F 60% 29.88 in 10.0 mi SE 10.4 mph 16.1 mph N/A   Clear
5:33 PM 69.8 °F 55.4 °F 60% 29.87 in 10.0 mi SE 9.2 mph - N/A   Clear
5:53 PM 68.0 °F 55.4 °F 64% 29.87 in 10.0 mi SE 9.2 mph - N/A   Clear
6:12 PM 66.2 °F 55.4 °F 68% 29.87 in 10.0 mi SE 6.9 mph - N/A   Clear
6:32 PM 66.2 °F 55.4 °F 68% 29.87 in 10.0 mi SE 6.9 mph - N/A   Clear
6:53 PM 66.2 °F 55.4 °F 68% 29.87 in 10.0 mi SE 9.2 mph - N/A   Clear
7:13 PM 66.2 °F 55.4 °F 68% 29.87 in 10.0 mi SE 9.2 mph - N/A   Clear
7:32 PM 66.2 °F 55.4 °F 68% 29.88 in 10.0 mi SE 8.1 mph - N/A   Clear
7:53 PM 66.2 °F 53.6 °F 64% 29.88 in 10.0 mi SE 10.4 mph - N/A   Clear
8:13 PM 66.2 °F 53.6 °F 64% 29.88 in 10.0 mi SE 10.4 mph - N/A   Clear
8:32 PM 64.4 °F 53.6 °F 68% 29.88 in 10.0 mi ESE 6.9 mph - N/A   Clear
8:53 PM 64.4 °F 53.6 °F 68% 29.88 in 10.0 mi SE 9.2 mph - N/A   Clear
9:13 PM 64.4 °F 53.6 °F 68% 29.88 in 10.0 mi SE 9.2 mph - N/A   Clear
9:33 PM 62.6 °F 53.6 °F 72% 29.88 in 10.0 mi SE 10.4 mph - N/A   Clear
9:53 PM 62.6 °F 51.8 °F 68% 29.88 in 10.0 mi SE 9.2 mph - N/A   Clear
10:13 PM 62.6 °F 51.8 °F 68% 29.88 in 10.0 mi SE 11.5 mph 16.1 mph N/A   Clear
10:33 PM 62.6 °F 51.8 °F 68% 29.88 in 10.0 mi SE 9.2 mph - N/A   Clear
10:52 PM 62.6 °F 51.8 °F 68% 29.88 in 10.0 mi SE 9.2 mph - N/A   Clear
11:13 PM 60.8 °F 51.8 °F 72% 29.89 in 10.0 mi SE 6.9 mph - N/A   Clear
11:33 PM 60.8 °F 51.8 °F 72% 29.88 in 10.0 mi SE 6.9 mph - N/A   Clear
11:53 PM 60.8 °F 51.8 °F 72% 29.88 in 10.0 mi SE 6.9 mph - N/A   Clear